| time (UTC) | temp F | wind direction | speed MPH | gust MPH | rain 1hr in | rain 24hr in | rain mn in | humidity % | barometer mb |
| 20260831033530 | 60 | 360 | 13.0 | 20.0 | 0.00 | 1.50 | 0.00 | 89 | |
| 20260831032542 | 60 | 188 | 12.0 | 20.0 | 0.00 | 1.50 | 0.00 | 89 | |
| 20260831031526 | 60 | 196 | 10.0 | 20.0 | 0.00 | 1.50 | 0.00 | 89 | |
| 20260831030541 | 60 | 175 | 11.0 | 18.0 | 0.00 | 1.50 | 0.00 | 90 | |
| 20260831025543 | 60 | 213 | 13.0 | 18.0 | 0.00 | 1.50 | 0.00 | 90 | |
| 20260831024536 | 60 | 207 | 11.0 | 16.0 | 0.00 | 1.50 | 0.00 | 90 | |
| 20260831023540 | 60 | 211 | 12.0 | 18.0 | 0.00 | 1.50 | 0.00 | 90 | |
| 20260831022525 | 60 | 183 | 9.0 | 13.0 | 0.00 | 1.50 | 0.00 | 90 | |
| 20260831021534 | 61 | 202 | 10.0 | 14.0 | 0.00 | 1.50 | 0.00 | 90 | |
| 20260831020547 | 61 | 201 | 12.0 | 19.0 | 0.00 | 1.50 | 0.00 | 90 | |
| 20260831015529 | 61 | 212 | 11.0 | 19.0 | 0.00 | 1.50 | 0.00 | 90 | |
| 20260831014543 | 61 | 360 | 9.0 | 16.0 | 0.00 | 1.50 | 0.00 | 90 | |
| 20260831013527 | 61 | 205 | 13.0 | 20.0 | 0.00 | 1.50 | 0.00 | 90 | |
| 20260831012541 | 61 | 227 | 12.0 | 19.0 | 0.00 | 1.50 | 0.00 | 91 | |
| 20260831011610 | 61 | 222 | 13.0 | 22.0 | 0.00 | 1.50 | 0.00 | 91 | |
| 20260831010532 | 61 | 360 | 11.0 | 16.0 | 0.00 | 1.50 | 0.00 | 91 | |
| 20260831005606 | 61 | 178 | 11.0 | 16.0 | 0.00 | 1.50 | 0.00 | 91 | |
| 20260831004550 | 61 | 204 | 8.0 | 14.0 | 0.00 | 1.50 | 0.00 | 92 | |
| 20260831003542 | 61 | 177 | 9.0 | 12.0 | 0.00 | 1.50 | 0.00 | 92 | |
| 20260831002526 | 61 | 180 | 8.0 | 12.0 | 0.00 | 1.50 | 0.00 | 92 | |
| 20260831001541 | 61 | 173 | 7.0 | 10.0 | 0.00 | 1.50 | 0.00 | 93 | |
| 20260831000551 | 60 | 198 | 6.0 | 11.0 | 0.00 | 1.50 | 0.00 | 92 | |
| 20260830235532 | 60 | 194 | 7.0 | 12.0 | 0.00 | 1.50 | 0.00 | 92 | |
| 20260830234605 | 60 | 220 | 9.0 | 13.0 | 0.00 | 1.50 | 0.00 | 93 | |
| 20260830233529 | 60 | 209 | 9.0 | 12.0 | 0.00 | 1.50 | 0.00 | 93 | |
| 20260830232542 | 60 | 360 | 7.0 | 10.0 | 0.00 | 1.50 | 0.00 | 92 | |
| 20260830231525 | 60 | 206 | 6.0 | 8.0 | 0.00 | 1.50 | 0.00 | 92 | |
| 20260830230529 | 60 | 204 | 6.0 | 9.0 | 0.00 | 1.50 | 0.00 | 92 | |
| 20260830225522 | 60 | 198 | 6.0 | 8.0 | 0.00 | 1.50 | 0.00 | 92 | |
| 20260830224523 | 60 | 200 | 6.0 | 8.0 | 0.00 | 1.50 | 0.00 | 92 | |
| 20260830223536 | 61 | 173 | 6.0 | 8.0 | 0.00 | 1.50 | 0.00 | 92 | |
| 20260830222520 | 61 | 173 | 5.0 | 7.0 | 0.00 | 1.50 | 0.00 | 92 | |
| 20260830221533 | 61 | 131 | 4.0 | 5.0 | 0.00 | 1.50 | 0.00 | 92 | |
| 20260830220518 | 61 | 128 | 2.0 | 5.0 | 0.00 | 1.50 | 0.00 | 92 | |
| 20260830215531 | 61 | 126 | 4.0 | 5.0 | 0.00 | 1.50 | 0.30 | 92 | |
| 20260830214536 | 61 | 243 | 2.0 | 5.0 | 0.00 | 1.50 | 0.30 | 92 | |
| 20260830213520 | 61 | 250 | 3.0 | 5.0 | 0.00 | 1.50 | 0.30 | 91 | |
| 20260830212528 | 61 | 252 | 3.0 | 5.0 | 0.00 | 1.50 | 0.30 | 91 | |
| 20260830211542 | 61 | 255 | 2.0 | 4.0 | 0.04 | 1.50 | 0.30 | 91 | |
| 20260830210525 | 61 | 255 | 2.0 | 2.0 | 0.08 | 1.50 | 0.30 | 91 | |
| 20260830205529 | 61 | 255 | 0.0 | 0.0 | 0.67 | 1.50 | 0.30 | 91 | |
| 20260830204521 | 61 | 255 | 0.0 | 1.0 | 1.38 | 1.50 | 0.30 | 90 | |
| 20260830203525 | 61 | 255 | 1.0 | 5.0 | 1.38 | 1.50 | 0.30 | 90 | |
| 20260830202538 | 61 | 255 | 2.0 | 5.0 | 1.38 | 1.50 | 0.30 | 89 | |
| 20260830201521 | 61 | 257 | 4.0 | 8.0 | 1.34 | 1.46 | 0.29 | 88 | |
| 20260830200531 | 62 | 269 | 6.0 | 14.0 | 1.30 | 1.42 | 0.28 | 88 | |
| 20260830195604 | 63 | 234 | 13.0 | 24.0 | 0.67 | 0.79 | 0.16 | 86 | |
| 20260830194547 | 65 | 166 | 4.0 | 6.0 | 0.00 | 0.12 | 0.02 | 86 | |
| 20260830193539 | 65 | 167 | 3.0 | 5.0 | 0.00 | 0.12 | 0.02 | 86 | |
| 20260830192543 | 65 | 169 | 3.0 | 5.0 | 0.00 | 0.12 | 0.02 | 85 | |
| 20260830191536 | 65 | 168 | 2.0 | 6.0 | 0.00 | 0.12 | 0.02 | 85 | |
| 20260830190518 | 65 | 170 | 3.0 | 5.0 | 0.00 | 0.12 | 0.02 | 86 | |
| 20260830185527 | 65 | 182 | 3.0 | 5.0 | 0.00 | 0.79 | 0.02 | 85 | |
| 20260830184532 | 66 | 181 | 3.0 | 7.0 | 0.00 | 0.79 | 0.02 | 84 | |
| 20260830183524 | 66 | 185 | 5.0 | 7.0 | 0.00 | 0.79 | 0.02 | 84 | |
| 20260830182558 | 67 | 196 | 6.0 | 9.0 | 0.00 | 0.79 | 0.02 | 83 | |
| 20260830181521 | 67 | 185 | 7.0 | 13.0 | 0.00 | 0.79 | 0.02 | 83 | |
| 20260830180535 | 67 | 194 | 7.0 | 11.0 | 0.00 | 0.79 | 0.02 | 83 | |
| 20260830175520 | 68 | 225 | 7.0 | 12.0 | 0.00 | 0.79 | 0.02 | 82 | |
| 20260830174520 | 68 | 225 | 9.0 | 13.0 | 0.00 | 0.79 | 0.02 | 82 | |
| 20260830173532 | 68 | 202 | 10.0 | 15.0 | 0.00 | 0.79 | 0.02 | 82 | |
| 20260830172545 | 68 | 172 | 10.0 | 16.0 | 0.00 | 0.79 | 0.02 | 82 | |
| 20260830171529 | 68 | 219 | 11.0 | 14.0 | 0.00 | 0.79 | 0.02 | 83 | |
| 20260830170533 | 67 | 182 | 9.0 | 13.0 | 0.00 | 0.79 | 0.02 | 84 | |
| 20260830165525 | 67 | 195 | 7.0 | 11.0 | 0.00 | 0.79 | 0.02 | 85 | |
| 20260830164528 | 67 | 219 | 6.0 | 8.0 | 0.00 | 0.79 | 0.02 | 84 | |
| 20260830163521 | 67 | 199 | 6.0 | 12.0 | 0.00 | 0.79 | 0.02 | 83 | |
| 20260830162541 | 69 | 203 | 9.0 | 23.0 | 0.00 | 0.79 | 0.02 | 80 | |
| 20260830161534 | 71 | 175 | 10.0 | 15.0 | 0.00 | 0.79 | 0.02 | 75 | |
| 20260830160547 | 71 | 202 | 8.0 | 14.0 | 0.00 | 0.79 | 0.02 | 76 | |
| 20260830155529 | 71 | 195 | 9.0 | 12.0 | 0.00 | 0.87 | 0.02 | 75 | |
| 20260830154543 | 71 | 213 | 7.0 | 12.0 | 0.00 | 0.87 | 0.02 | 75 | |
| 20260830153528 | 71 | 194 | 10.0 | 15.0 | 0.00 | 0.87 | 0.02 | 75 | |
| 20260830152559 | 71 | 208 | 11.0 | 21.0 | 0.00 | 0.87 | 0.02 | 75 | |
| 20260830151539 | 71 | 195 | 12.0 | 16.0 | 0.00 | 0.87 | 0.02 | 74 | |
| 20260830150532 | 72 | 360 | 7.0 | 13.0 | 0.00 | 0.87 | 0.02 | 74 | |
| 20260830145546 | 72 | 220 | 9.0 | 16.0 | 0.00 | 1.46 | 0.02 | 73 | |
| 20260830144531 | 72 | 256 | 11.0 | 18.0 | 0.00 | 1.46 | 0.02 | 73 | |
| 20260830143536 | 72 | 207 | 12.0 | 18.0 | 0.00 | 1.46 | 0.02 | 72 | |
| 20260830142523 | 73 | 219 | 11.0 | 15.0 | 0.00 | 1.46 | 0.02 | 72 | |
| 20260830141528 | 73 | 224 | 12.0 | 18.0 | 0.00 | 1.46 | 0.02 | 72 | |
| 20260830140520 | 72 | 249 | 12.0 | 18.0 | 0.00 | 1.46 | 0.02 | 73 | |
| 20260830135519 | 71 | 259 | 11.0 | 19.0 | 0.00 | 1.57 | 0.02 | 73 | |
| 20260830134533 | 72 | 223 | 15.0 | 22.0 | 0.00 | 1.57 | 0.02 | 72 | |
| 20260830133605 | 72 | 187 | 13.0 | 19.0 | 0.00 | 1.57 | 0.02 | 71 | |
| 20260830132528 | 73 | 202 | 11.0 | 22.0 | 0.00 | 1.57 | 0.02 | 68 | |
| 20260830131542 | 73 | 205 | 13.0 | 19.0 | 0.00 | 1.57 | 0.02 | 67 | |
| 20260830130524 | 73 | 218 | 11.0 | 19.0 | 0.00 | 1.57 | 0.02 | 68 | |
| 20260830125528 | 72 | 233 | 11.0 | 21.0 | 0.00 | 1.57 | 0.02 | 69 | |
| 20260830124559 | 72 | 218 | 14.0 | 21.0 | 0.00 | 1.57 | 0.02 | 70 | |
| 20260830123531 | 71 | 224 | 12.0 | 20.0 | 0.00 | 1.57 | 0.02 | 72 | |
| 20260830122534 | 71 | 258 | 16.0 | 21.0 | 0.00 | 1.57 | 0.02 | 73 | |
| 20260830121518 | 71 | 269 | 8.0 | 14.0 | 0.00 | 1.57 | 0.02 | 79 | |
| 20260830120531 | 70 | 268 | 6.0 | 11.0 | 0.00 | 1.57 | 0.02 | 78 | |
| 20260830115545 | 70 | 274 | 7.0 | 16.0 | 0.00 | 1.57 | 0.02 | 78 | |
| 20260830114528 | 70 | 221 | 10.0 | 15.0 | 0.00 | 1.57 | 0.02 | 78 | |
| 20260830113539 | 69 | 283 | 9.0 | 13.0 | 0.00 | 1.57 | 0.02 | 80 | |
| 20260830112521 | 69 | 262 | 10.0 | 13.0 | 0.00 | 1.57 | 0.02 | 80 | |
| 20260830111526 | 69 | 248 | 9.0 | 13.0 | 0.00 | 1.57 | 0.02 | 80 | |
| 20260830110519 | 69 | 256 | 10.0 | 18.0 | 0.00 | 1.57 | 0.02 | 81 | |
| 20260830105554 | 69 | 288 | 12.0 | 18.0 | 0.00 | 1.57 | 0.02 | 82 | |
| 20260830104606 | 68 | 250 | 10.0 | 20.0 | 0.00 | 1.57 | 0.02 | 82 | |
| 20260830103528 | 69 | 253 | 13.0 | 23.0 | 0.00 | 1.57 | 0.02 | 82 | |
| 20260830102528 | 69 | 252 | 10.0 | 20.0 | 0.00 | 1.57 | 0.02 | 83 | |
| 20260830101522 | 68 | 248 | 11.0 | 18.0 | 0.00 | 1.57 | 0.02 | 84 | |
| 20260830100526 | 67 | 265 | 10.0 | 16.0 | 0.00 | 1.57 | 0.02 | 84 | |
| 20260830095539 | 67 | 243 | 11.0 | 19.0 | 0.00 | 1.57 | 0.02 | 85 | |
| 20260830094543 | 68 | 234 | 11.0 | 20.0 | 0.00 | 1.57 | 0.02 | 84 | |
| 20260830093534 | 68 | 239 | 14.0 | 24.0 | 0.00 | 1.57 | 0.02 | 83 | |
| 20260830092518 | 69 | 252 | 15.0 | 22.0 | 0.00 | 1.57 | 0.02 | 83 | |
| 20260830091547 | 69 | 217 | 15.0 | 21.0 | 0.00 | 1.57 | 0.02 | 82 | |
| 20260830090540 | 69 | 242 | 14.0 | 24.0 | 0.00 | 1.57 | 0.02 | 82 | |
| 20260830085522 | 68 | 250 | 16.0 | 24.0 | 0.00 | 1.57 | 0.02 | 83 | |
| 20260830084555 | 67 | 256 | 13.0 | 23.0 | 0.00 | 1.57 | 0.02 | 84 | |
| 20260830083546 | 67 | 240 | 15.0 | 24.0 | 0.00 | 1.57 | 0.02 | 85 | |
| 20260830082530 | 66 | 259 | 17.0 | 26.0 | 0.00 | 1.57 | 0.02 | 85 | |
| 20260830081535 | 67 | 248 | 15.0 | 21.0 | 0.00 | 1.57 | 0.02 | 85 | |
| 20260830080528 | 67 | 259 | 15.0 | 23.0 | 0.00 | 1.57 | 0.02 | 86 | |
| 20260830075528 | 67 | 211 | 15.0 | 28.0 | 0.00 | 1.57 | 0.02 | 86 | |
| 20260830074540 | 65 | 238 | 18.0 | 25.0 | 0.00 | 1.57 | 0.02 | 86 | |
| 20260830073524 | 65 | 234 | 16.0 | 23.0 | 0.00 | 1.57 | 0.02 | 88 | |
| 20260830072537 | 64 | 246 | 13.0 | 20.0 | 0.00 | 1.57 | 0.02 | 88 | |
| 20260830071518 | 64 | 237 | 15.0 | 22.0 | 0.00 | 1.57 | 0.02 | 89 | |
| 20260830070532 | 64 | 267 | 14.0 | 22.0 | 0.00 | 1.57 | 0.02 | 88 | |
| 20260830065535 | 64 | 225 | 15.0 | 23.0 | 0.00 | 1.57 | 0.02 | 89 | |
| 20260830064519 | 64 | 218 | 14.0 | 23.0 | 0.00 | 1.57 | 0.02 | 89 | |
| 20260830063529 | 64 | 238 | 12.0 | 18.0 | 0.00 | 1.57 | 0.02 | 89 | |
| 20260830062541 | 64 | 246 | 14.0 | 22.0 | 0.00 | 1.57 | 0.02 | 89 | |
| 20260830061526 | 63 | 243 | 14.0 | 22.0 | 0.00 | 1.57 | 0.02 | 89 | |
| 20260830060540 | 63 | 244 | 15.0 | 23.0 | 0.00 | 1.57 | 0.02 | 89 | |
| 20260830055544 | 63 | 249 | 15.0 | 22.0 | 0.00 | 1.57 | 0.02 | 90 | |
| 20260830054536 | 63 | 229 | 15.0 | 20.0 | 0.00 | 1.57 | 0.02 | 90 | |
| 20260830053519 | 63 | 209 | 13.0 | 24.0 | 0.00 | 1.57 | 0.02 | 90 | |
| 20260830052529 | 63 | 232 | 16.0 | 22.0 | 0.00 | 1.57 | 0.02 | 90 | |
| 20260830051533 | 63 | 226 | 15.0 | 22.0 | 0.04 | 1.57 | 0.02 | 90 | |
| 20260830050518 | 63 | 229 | 14.0 | 21.0 | 0.08 | 1.57 | 0.02 | 91 | |
| 20260830045531 | 63 | 360 | 14.0 | 21.0 | 0.08 | 1.57 | 0.02 | 91 | |
| 20260830044544 | 62 | 238 | 15.0 | 21.0 | 0.08 | 1.57 | 0.02 | 91 | |
| 20260830043529 | 62 | 263 | 8.0 | 13.0 | 0.12 | 1.57 | 0.02 | 91 | |
| 20260830042533 | 62 | 293 | 6.0 | 11.0 | 0.12 | 1.57 | 0.02 | 91 | |
| 20260830041546 | 63 | 288 | 9.0 | 11.0 | 0.08 | 1.54 | 0.02 | 90 | |
| 20260830040556 | 63 | 298 | 8.0 | 12.0 | 0.04 | 1.50 | 0.01 | 90 | |
| 20260830035519 | 63 | 265 | 8.0 | 15.0 | 0.04 | 1.50 | 0.01 | 90 | |
| 20260830034532 | 63 | 267 | 10.0 | 19.0 | 0.04 | 1.50 | 0.01 | 90 |